30.2°F
Current conditions from King Hill
Updated every 5 minutes
 
  Friday September 19, 2014

Station Historical Data
Daily Summary for March 16, 2011 Units:  Metric    English   Both
« Previous Day
Next Day »
Daily Weekly Monthly Yearly Custom
  High: Low: Average:
Temperature: 4.2 °C 0.7 °C 2.7 °C
Dew Point: 2 °C -2.9 °C -0.1 °C
Humidity: 89% 64% 82%
Wind Speed: 19.3km/h 1.6km/h 10.3km/h
Wind Gust: 38.6km/h - -
Wind- - SSW
Pressure: 1023.6 hPa 1012.8 hPa -
Precipitation: 0 mm    
Historical Graphs
 
 
Tabular Data for March 16, 2011
Time Temperature Dew Point Pressure Wind Wind Speed Wind Gust Humidity Daily Rainfall
00:04 3.3 °C -2.9 °C 1023.6 hPa SSW 12.9 km/h 24.1 km/h 64% 0 mm
00:09 3.2 °C -2.9 °C 1023.6 hPa SSW 12.9 km/h 24.1 km/h 64% 0 mm
00:14 3.2 °C -2.9 °C 1023.6 hPa SSW 16.1 km/h 30.6 km/h 64% 0 mm
00:19 3.2 °C -2.7 °C 1023.6 hPa SSW 17.7 km/h 37 km/h 65% 0 mm
00:24 3.2 °C -2.8 °C 1023.6 hPa SSW 16.1 km/h 37 km/h 65% 0 mm
00:29 3.2 °C -2.8 °C 1023.6 hPa SSW 14.5 km/h 35.4 km/h 65% 0 mm
00:34 3 °C -2.7 °C 1023.6 hPa SSW 11.3 km/h 32.2 km/h 66% 0 mm
00:39 2.9 °C -2.8 °C 1023.2 hPa SSW 12.9 km/h 27.4 km/h 66% 0 mm
00:44 2.9 °C -2.8 °C 1023.2 hPa SSW 16.1 km/h 27.4 km/h 66% 0 mm
00:49 3.1 °C -2.7 °C 1023.2 hPa SSW 9.7 km/h 27.4 km/h 66% 0 mm
00:54 3.1 °C -2.6 °C 1023.2 hPa SSW 12.9 km/h 29 km/h 66% 0 mm
00:59 3.1 °C -2.4 °C 1022.9 hPa SSW 17.7 km/h 33.8 km/h 67% 0 mm
01:04 3.1 °C -2.4 °C 1022.9 hPa SSW 12.9 km/h 33.8 km/h 67% 0 mm
01:09 3.1 °C -2.5 °C 1022.9 hPa SSW 14.5 km/h 27.4 km/h 67% 0 mm
01:14 3.1 °C -2.5 °C 1022.9 hPa SSW 11.3 km/h 27.4 km/h 67% 0 mm
01:19 3.1 °C -2.5 °C 1022.9 hPa SSW 11.3 km/h 25.7 km/h 67% 0 mm
01:24 3 °C -2.6 °C 1022.9 hPa SSW 11.3 km/h 30.6 km/h 67% 0 mm
01:29 3 °C -2.3 °C 1022.6 hPa SSW 17.7 km/h 30.6 km/h 68% 0 mm
01:34 2.9 °C -2.2 °C 1022.6 hPa SSW 12.9 km/h 30.6 km/h 69% 0 mm
01:39 2.8 °C -2.3 °C 1022.6 hPa SSW 11.3 km/h 27.4 km/h 69% 0 mm
01:44 2.8 °C -2.3 °C 1022.6 hPa SSW 11.3 km/h 27.4 km/h 69% 0 mm
01:49 2.7 °C -2.2 °C 1022.6 hPa SSW 14.5 km/h 25.7 km/h 70% 0 mm
01:54 2.8 °C -2.2 °C 1022.6 hPa SSW 12.9 km/h 25.7 km/h 70% 0 mm
01:59 2.7 °C -2.2 °C 1022.6 hPa SSW 17.7 km/h 33.8 km/h 70% 0 mm
02:04 2.7 °C -2.3 °C 1022.6 hPa SSW 9.7 km/h 33.8 km/h 70% 0 mm
02:09 2.7 °C -2.3 °C 1022.6 hPa SSW 17.7 km/h 25.7 km/h 70% 0 mm
02:14 2.7 °C -2.3 °C 1022.2 hPa SSW 14.5 km/h 30.6 km/h 70% 0 mm
02:19 2.6 °C -2.4 °C 1022.2 hPa SSW 11.3 km/h 30.6 km/h 70% 0 mm
02:24 2.6 °C -2.4 °C 1022.2 hPa SSW 12.9 km/h 27.4 km/h 70% 0 mm
02:29 2.6 °C -2.4 °C 1022.2 hPa SSW 17.7 km/h 33.8 km/h 70% 0 mm
02:34 2.4 °C -2.4 °C 1022.2 hPa SSW 12.9 km/h 33.8 km/h 70% 0 mm
02:39 2.4 °C -2.3 °C 1022.2 hPa SSW 16.1 km/h 30.6 km/h 71% 0 mm
02:44 2.4 °C -2.3 °C 1022.2 hPa SSW 12.9 km/h 30.6 km/h 71% 0 mm
02:49 2.3 °C -2.4 °C 1022.2 hPa SW 12.9 km/h 29 km/h 71% 0 mm
02:55 2.3 °C -2.4 °C 1022.2 hPa SSW 11.3 km/h 33.8 km/h 71% 0 mm
02:59 2.3 °C -2.4 °C 1022.2 hPa SSW 12.9 km/h 33.8 km/h 71% 0 mm
03:04 2.3 °C -2.4 °C 1021.9 hPa SSW 9.7 km/h 29 km/h 71% 0 mm
03:09 2.2 °C -2.3 °C 1021.9 hPa SSW 14.5 km/h 29 km/h 72% 0 mm
03:14 2.2 °C -2.3 °C 1021.6 hPa SSW 9.7 km/h 30.6 km/h 72% 0 mm
03:19 2.1 °C -2.4 °C 1021.6 hPa SSW 11.3 km/h 30.6 km/h 72% 0 mm
03:24 2.1 °C -2.3 °C 1021.6 hPa SSW 16.1 km/h 29 km/h 73% 0 mm
03:29 2.1 °C -2.2 °C 1021.6 hPa SSW 17.7 km/h 30.6 km/h 73% 0 mm
03:34 2.1 °C -2.2 °C 1021.2 hPa SSW 9.7 km/h 30.6 km/h 73% 0 mm
03:39 2.2 °C -2 °C 1021.2 hPa SSW 17.7 km/h 35.4 km/h 74% 0 mm
03:44 2.2 °C -2.1 °C 1021.2 hPa SSW 11.3 km/h 35.4 km/h 73% 0 mm
03:49 2.2 °C -1.9 °C 1021.2 hPa SSW 11.3 km/h 35.4 km/h 74% 0 mm
03:54 2.3 °C -1.9 °C 1021.2 hPa SSW 12.9 km/h 33.8 km/h 74% 0 mm
03:59 2.3 °C -1.9 °C 1020.9 hPa SSW 17.7 km/h 33.8 km/h 74% 0 mm
04:04 2.2 °C -1.9 °C 1020.9 hPa SSW 17.7 km/h 33.8 km/h 74% 0 mm
04:09 2.2 °C -1.8 °C 1021.2 hPa SSW 14.5 km/h 33.8 km/h 75% 0 mm
04:14 2 °C -1.6 °C 1020.9 hPa SSW 14.5 km/h 35.4 km/h 77% 0 mm
04:19 1.7 °C -1.6 °C 1020.9 hPa SSW 17.7 km/h 35.4 km/h 79% 0 mm
04:24 1.5 °C -1.4 °C 1020.9 hPa SSW 11.3 km/h 27.4 km/h 81% 0 mm
04:29 1.4 °C -1.5 °C 1020.9 hPa SSW 12.9 km/h 32.2 km/h 81% 0 mm
04:34 1.3 °C -1.2 °C 1020.9 hPa SSW 14.5 km/h 32.2 km/h 83% 0 mm
04:39 1.3 °C -1.2 °C 1020.9 hPa SSW 17.7 km/h 30.6 km/h 83% 0 mm
04:44 1.3 °C -1.2 °C 1020.9 hPa SSW 11.3 km/h 30.6 km/h 83% 0 mm
04:49 1.3 °C -1.1 °C 1020.9 hPa SSW 12.9 km/h 29 km/h 84% 0 mm
04:55 1.2 °C -1.2 °C 1020.5 hPa SSW 16.1 km/h 30.6 km/h 84% 0 mm
04:59 1.2 °C -1.2 °C 1020.5 hPa SSW 12.9 km/h 32.2 km/h 84% 0 mm
05:04 1.2 °C -1.1 °C 1020.5 hPa SSW 17.7 km/h 33.8 km/h 85% 0 mm
05:09 1.1 °C -1.2 °C 1020.5 hPa SSW 14.5 km/h 33.8 km/h 85% 0 mm
05:14 1 °C -1.1 °C 1020.2 hPa SSW 12.9 km/h 29 km/h 86% 0 mm
05:19 1 °C -1.1 °C 1020.2 hPa SSW 9.7 km/h 25.7 km/h 86% 0 mm
05:24 0.9 °C -1 °C 1020.2 hPa SSW 11.3 km/h 27.4 km/h 87% 0 mm
05:29 0.9 °C -1 °C 1020.2 hPa SSW 14.5 km/h 32.2 km/h 87% 0 mm
05:34 0.9 °C -1 °C 1020.2 hPa SSW 19.3 km/h 35.4 km/h 87% 0 mm
05:39 0.9 °C -1.1 °C 1020.2 hPa SSW 19.3 km/h 35.4 km/h 87% 0 mm
05:44 0.8 °C -1.1 °C 1020.2 hPa SSW 14.5 km/h 30.6 km/h 87% 0 mm
05:49 0.8 °C -0.9 °C 1020.2 hPa SSW 12.9 km/h 29 km/h 88% 0 mm
05:54 0.8 °C -1 °C 1019.9 hPa SSW 16.1 km/h 29 km/h 88% 0 mm
05:59 0.7 °C -1.1 °C 1019.9 hPa SSW 12.9 km/h 29 km/h 88% 0 mm
06:04 0.7 °C -0.9 °C 1019.9 hPa SSW 12.9 km/h 32.2 km/h 89% 0 mm
06:09 0.7 °C -0.9 °C 1019.5 hPa SSW 11.3 km/h 32.2 km/h 89% 0 mm
06:14 0.7 °C -0.9 °C 1019.5 hPa SSW 11.3 km/h 25.7 km/h 89% 0 mm
06:19 0.8 °C -0.8 °C 1019.5 hPa SSW 12.9 km/h 25.7 km/h 89% 0 mm
06:24 0.8 °C -0.8 °C 1019.5 hPa SSW 6.4 km/h 22.5 km/h 89% 0 mm
06:29 0.8 °C -0.8 °C 1019.2 hPa SSW 4.8 km/h 19.3 km/h 89% 0 mm
06:34 0.8 °C -0.8 °C 1019.5 hPa SW 6.4 km/h 14.5 km/h 89% 0 mm
06:39 0.8 °C -0.8 °C 1019.5 hPa South 6.4 km/h 14.5 km/h 89% 0 mm
06:44 0.9 °C -0.8 °C 1019.5 hPa SSW 14.5 km/h 22.5 km/h 88% 0 mm
06:49 1.1 °C -0.8 °C 1019.5 hPa SSW 9.7 km/h 24.1 km/h 87% 0 mm
06:54 1.2 °C -0.8 °C 1019.5 hPa SSW 11.3 km/h 24.1 km/h 86% 0 mm
06:59 1.3 °C -0.8 °C 1019.5 hPa SSW 14.5 km/h 32.2 km/h 86% 0 mm
07:04 1.3 °C -0.8 °C 1019.5 hPa SSW 11.3 km/h 32.2 km/h 86% 0 mm
07:09 1.3 °C -0.9 °C 1019.5 hPa SSW 12.9 km/h 32.2 km/h 85% 0 mm
07:14 1.3 °C -0.9 °C 1019.5 hPa SSW 11.3 km/h 24.1 km/h 85% 0 mm
07:19 1.2 °C -0.8 °C 1019.5 hPa SSW 17.7 km/h 35.4 km/h 86% 0 mm
07:24 1.2 °C -1 °C 1019.2 hPa SSW 16.1 km/h 35.4 km/h 85% 0 mm
07:29 1.2 °C -1 °C 1019.5 hPa SSW 16.1 km/h 30.6 km/h 85% 0 mm
07:34 1.2 °C -0.8 °C 1019.2 hPa SSW 9.7 km/h 32.2 km/h 86% 0 mm
07:39 1.2 °C -0.9 °C 1019.2 hPa SSW 14.5 km/h 35.4 km/h 86% 0 mm
07:44 1.1 °C -0.9 °C 1019.2 hPa SSW 9.7 km/h 35.4 km/h 86% 0 mm
07:49 1.1 °C -0.9 °C 1019.2 hPa SSW 16.1 km/h 29 km/h 87% 0 mm
07:54 1.1 °C -0.9 °C 1019.2 hPa SSW 14.5 km/h 30.6 km/h 87% 0 mm
07:59 1.1 °C -0.9 °C 1018.8 hPa SSW 14.5 km/h 30.6 km/h 86% 0 mm
08:04 1.1 °C -0.8 °C 1018.8 hPa SSW 16.1 km/h 29 km/h 87% 0 mm
08:09 1.2 °C -0.8 °C 1018.8 hPa SSW 11.3 km/h 29 km/h 87% 0 mm
08:14 1.2 °C -0.8 °C 1018.8 hPa South 16.1 km/h 30.6 km/h 86% 0 mm
08:19 1.2 °C -0.8 °C 1018.8 hPa SSW 14.5 km/h 30.6 km/h 86% 0 mm
08:24 1.2 °C -0.8 °C 1018.5 hPa SSW 11.3 km/h 30.6 km/h 86% 0 mm
08:30 1.3 °C -0.8 °C 1018.5 hPa SSW 14.5 km/h 30.6 km/h 86% 0 mm
08:35 1.3 °C -0.8 °C 1018.5 hPa SSW 9.7 km/h 29 km/h 86% 0 mm
08:44 1.3 °C -0.9 °C 1018.5 hPa SSW 9.7 km/h 24.1 km/h 85% 0 mm
08:49 1.3 °C -0.9 °C 1018.5 hPa SSW 11.3 km/h 22.5 km/h 85% 0 mm
08:55 1.3 °C -0.9 °C 1018.5 hPa SSW 11.3 km/h 22.5 km/h 85% 0 mm
08:59 1.4 °C -0.9 °C 1018.5 hPa SSW 11.3 km/h 22.5 km/h 84% 0 mm
09:04 1.6 °C -0.8 °C 1018.2 hPa SSW 11.3 km/h 25.7 km/h 84% 0 mm
09:09 1.7 °C -0.8 °C 1018.2 hPa SSW 12.9 km/h 27.4 km/h 83% 0 mm
09:14 1.8 °C -0.9 °C 1018.2 hPa SSW 16.1 km/h 33.8 km/h 82% 0 mm
09:19 1.8 °C -1.1 °C 1018.5 hPa SSW 11.3 km/h 33.8 km/h 81% 0 mm
09:24 1.8 °C -1.1 °C 1018.5 hPa SSW 16.1 km/h 33.8 km/h 81% 0 mm
09:30 1.8 °C -1.1 °C 1018.2 hPa SSW 14.5 km/h 33.8 km/h 81% 0 mm
09:34 1.8 °C -1.1 °C 1018.5 hPa SSW 17.7 km/h 38.6 km/h 81% 0 mm
09:39 1.8 °C -0.9 °C 1018.2 hPa SSW 12.9 km/h 38.6 km/h 82% 0 mm
09:44 1.8 °C -0.9 °C 1018.2 hPa SSW 16.1 km/h 29 km/h 82% 0 mm
09:49 1.8 °C -0.9 °C 1018.2 hPa SSW 12.9 km/h 27.4 km/h 82% 0 mm
09:54 1.8 °C -0.7 °C 1018.2 hPa SSW 16.1 km/h 27.4 km/h 83% 0 mm
09:59 1.8 °C -0.7 °C 1018.2 hPa SSW 17.7 km/h 30.6 km/h 83% 0 mm
10:04 1.8 °C -0.7 °C 1018.2 hPa SSW 16.1 km/h 30.6 km/h 83% 0 mm
10:09 1.8 °C -0.7 °C 1018.2 hPa SSW 17.7 km/h 33.8 km/h 83% 0 mm
10:14 1.9 °C -0.6 °C 1018.2 hPa SSW 17.7 km/h 35.4 km/h 83% 0 mm
10:19 2 °C -0.6 °C 1017.8 hPa SSW 14.5 km/h 35.4 km/h 83% 0 mm
10:24 2.1 °C -0.6 °C 1017.8 hPa SSW 11.3 km/h 27.4 km/h 83% 0 mm
10:29 2.1 °C -0.5 °C 1017.8 hPa SSW 14.5 km/h 29 km/h 83% 0 mm
10:34 2.2 °C -0.4 °C 1017.8 hPa SSW 12.9 km/h 29 km/h 83% 0 mm
10:39 2.2 °C -0.4 °C 1017.8 hPa SSW 9.7 km/h 25.7 km/h 83% 0 mm
10:44 2.2 °C -0.4 °C 1017.8 hPa SSW 11.3 km/h 25.7 km/h 83% 0 mm
10:49 2.2 °C -0.4 °C 1017.8 hPa SSW 8 km/h 27.4 km/h 83% 0 mm
10:54 2.2 °C -0.4 °C 1017.5 hPa SSW 14.5 km/h 29 km/h 83% 0 mm
10:59 2.2 °C -0.4 °C 1017.5 hPa SSW 16.1 km/h 29 km/h 83% 0 mm
11:04 2.2 °C -0.4 °C 1017.5 hPa SW 11.3 km/h 29 km/h 83% 0 mm
11:09 2.2 °C -0.4 °C 1017.5 hPa SW 9.7 km/h 27.4 km/h 83% 0 mm
11:14 2.1 °C -0.5 °C 1017.5 hPa SW 12.9 km/h 24.1 km/h 83% 0 mm
11:19 2.1 °C -0.5 °C 1017.5 hPa SW 8 km/h 24.1 km/h 83% 0 mm
11:24 2.1 °C -0.4 °C 1017.2 hPa SSW 11.3 km/h 24.1 km/h 84% 0 mm
11:29 2.1 °C -0.4 °C 1017.2 hPa SSW 8 km/h 19.3 km/h 84% 0 mm
11:34 2 °C -0.4 °C 1017.2 hPa SSW 8 km/h 19.3 km/h 84% 0 mm
11:39 1.9 °C -0.5 °C 1017.2 hPa SW 9.7 km/h 20.9 km/h 84% 0 mm
11:44 1.9 °C -0.5 °C 1017.2 hPa SW 3.2 km/h 20.9 km/h 84% 0 mm
11:49 2 °C -0.3 °C 1017.2 hPa SSW 3.2 km/h 14.5 km/h 85% 0 mm
11:54 2 °C -0.3 °C 1016.8 hPa SW 3.2 km/h 14.5 km/h 85% 0 mm
11:59 2.1 °C -0.2 °C 1016.8 hPa SW 4.8 km/h 12.9 km/h 85% 0 mm
12:04 2.1 °C -0.2 °C 1016.8 hPa SW 1.6 km/h 12.9 km/h 85% 0 mm
12:09 2.1 °C -0.2 °C 1016.8 hPa SSW 6.4 km/h 14.5 km/h 85% 0 mm
12:14 2.2 °C -0.1 °C 1016.8 hPa SSW 6.4 km/h 16.1 km/h 85% 0 mm
12:19 2.2 °C -0.1 °C 1016.5 hPa SSW 6.4 km/h 16.1 km/h 85% 0 mm
12:24 2.3 °C 0 °C 1016.5 hPa SSW 8 km/h 14.5 km/h 85% 0 mm
12:29 2.4 °C 0.2 °C 1016.1 hPa SSW 8 km/h 14.5 km/h 85% 0 mm
12:34 2.7 °C 0.2 °C 1016.1 hPa SSW 9.7 km/h 16.1 km/h 84% 0 mm
12:39 2.8 °C 0.2 °C 1016.1 hPa SSW 8 km/h 19.3 km/h 83% 0 mm
12:44 2.9 °C 0.3 °C 1016.1 hPa SSW 11.3 km/h 19.3 km/h 83% 0 mm
12:49 3.1 °C 0.3 °C 1015.8 hPa SSW 9.7 km/h 19.3 km/h 82% 0 mm
12:55 3.3 °C 0.5 °C 1015.8 hPa SW 9.7 km/h 17.7 km/h 82% 0 mm
12:59 3.3 °C 0.4 °C 1015.8 hPa SW 12.9 km/h 20.9 km/h 81% 0 mm
13:04 3.3 °C 0.4 °C 1015.8 hPa WSW 11.3 km/h 20.9 km/h 81% 0 mm
13:09 3.3 °C 0.6 °C 1015.8 hPa SSW 6.4 km/h 20.9 km/h 82% 0 mm
13:14 3.4 °C 0.7 °C 1015.5 hPa SW 9.7 km/h 20.9 km/h 82% 0 mm
13:19 3.6 °C 0.6 °C 1015.5 hPa SW 9.7 km/h 20.9 km/h 81% 0 mm
13:24 3.7 °C 0.7 °C 1015.5 hPa SSW 6.4 km/h 20.9 km/h 81% 0 mm
13:30 3.9 °C 0.9 °C 1015.1 hPa SSW 9.7 km/h 22.5 km/h 81% 0 mm
13:34 3.9 °C 0.8 °C 1015.1 hPa SSW 12.9 km/h 24.1 km/h 80% 0 mm
13:39 4 °C 0.9 °C 1015.1 hPa SW 11.3 km/h 24.1 km/h 80% 0 mm
13:44 3.9 °C 1 °C 1015.1 hPa SW 12.9 km/h 22.5 km/h 81% 0 mm
13:49 3.8 °C 0.9 °C 1015.1 hPa SSW 11.3 km/h 22.5 km/h 81% 0 mm
13:54 3.8 °C 0.9 °C 1014.8 hPa SSW 8 km/h 22.5 km/h 81% 0 mm
14:04 3.8 °C 0.8 °C 1014.4 hPa SSW 8 km/h 19.3 km/h 81% 0 mm
14:09 3.8 °C 1.1 °C 1014.4 hPa SSW 11.3 km/h 19.3 km/h 82% 0 mm
14:14 3.8 °C 1.1 °C 1014.4 hPa SSW 11.3 km/h 22.5 km/h 82% 0 mm
14:19 3.8 °C 1.1 °C 1014.1 hPa SSW 8 km/h 22.5 km/h 82% 0 mm
14:24 3.8 °C 1.1 °C 1014.1 hPa SW 8 km/h 22.5 km/h 82% 0 mm
14:29 3.8 °C 1 °C 1014.1 hPa SSW 4.8 km/h 19.3 km/h 82% 0 mm
14:35 3.8 °C 1.2 °C 1014.1 hPa SW 6.4 km/h 20.9 km/h 83% 0 mm
14:44 3.7 °C 1.1 °C 1013.8 hPa SSW 11.3 km/h 20.9 km/h 83% 0 mm
14:49 3.6 °C 1 °C 1014.1 hPa SW 8 km/h 20.9 km/h 83% 0 mm
14:54 3.6 °C 1.1 °C 1014.1 hPa SSW 9.7 km/h 19.3 km/h 84% 0 mm
14:59 3.7 °C 1.2 °C 1014.1 hPa SSW 12.9 km/h 22.5 km/h 84% 0 mm
15:04 3.7 °C 1.4 °C 1013.8 hPa SSW 12.9 km/h 22.5 km/h 85% 0 mm
15:09 3.7 °C 1.4 °C 1013.8 hPa SSW 8 km/h 22.5 km/h 85% 0 mm
15:14 3.6 °C 1.3 °C 1013.8 hPa SW 8 km/h 17.7 km/h 85% 0 mm
15:19 3.7 °C 1.6 °C 1013.8 hPa SSW 6.4 km/h 17.7 km/h 86% 0 mm
15:24 3.7 °C 1.6 °C 1013.8 hPa South 4.8 km/h 17.7 km/h 86% 0 mm
15:29 3.7 °C 1.8 °C 1013.8 hPa SW 8 km/h 17.7 km/h 87% 0 mm
15:35 3.7 °C 1.8 °C 1013.8 hPa SSW 9.7 km/h 20.9 km/h 87% 0 mm
15:44 3.7 °C 1.8 °C 1013.8 hPa SSW 8 km/h 17.7 km/h 87% 0 mm
15:49 3.7 °C 1.7 °C 1013.4 hPa SSW 8 km/h 17.7 km/h 87% 0 mm
15:55 3.7 °C 1.8 °C 1013.4 hPa SSW 9.7 km/h 17.7 km/h 87% 0 mm
16:04 3.8 °C 1.8 °C 1013.4 hPa SSW 6.4 km/h 17.7 km/h 87% 0 mm
16:09 3.8 °C 1.9 °C 1013.4 hPa SSW 8 km/h 16.1 km/h 87% 0 mm
16:14 3.9 °C 1.9 °C 1013.4 hPa SSW 9.7 km/h 14.5 km/h 87% 0 mm
16:19 3.9 °C 2 °C 1013.1 hPa SSW 8 km/h 14.5 km/h 87% 0 mm
16:24 4 °C 1.9 °C 1013.4 hPa SSW 6.4 km/h 14.5 km/h 86% 0 mm
16:30 4 °C 1.9 °C 1013.4 hPa SSW 6.4 km/h 14.5 km/h 86% 0 mm
16:34 4 °C 1.9 °C 1013.4 hPa SW 9.7 km/h 17.7 km/h 86% 0 mm
16:39 4.1 °C 1.9 °C 1013.1 hPa SSW 8 km/h 19.3 km/h 86% 0 mm
16:44 4.1 °C 1.8 °C 1013.1 hPa SSW 9.7 km/h 19.3 km/h 85% 0 mm
16:49 4.2 °C 1.9 °C 1012.8 hPa SSW 9.7 km/h 16.1 km/h 85% 0 mm
16:54 4.2 °C 1.9 °C 1012.8 hPa SSW 6.4 km/h 16.1 km/h 85% 0 mm
16:59 4.2 °C 1.7 °C 1013.1 hPa SSW 8 km/h 17.7 km/h 84% 0 mm
17:04 4.1 °C 1.7 °C 1013.1 hPa SSW 6.4 km/h 17.7 km/h 84% 0 mm
17:09 4.1 °C 1.6 °C 1013.1 hPa SSW 9.7 km/h 16.1 km/h 84% 0 mm
17:14 4.1 °C 1.7 °C 1013.1 hPa SSW 8 km/h 14.5 km/h 84% 0 mm
17:19 4 °C 1.6 °C 1013.1 hPa SSW 6.4 km/h 14.5 km/h 84% 0 mm
17:24 4.1 °C 1.8 °C 1013.1 hPa SSW 8 km/h 16.1 km/h 85% 0 mm
17:29 4 °C 1.6 °C 1013.1 hPa SSW 6.4 km/h 16.1 km/h 84% 0 mm
17:34 3.9 °C 1.5 °C 1012.8 hPa SSW 6.4 km/h 14.5 km/h 84% 0 mm
17:39 4 °C 1.7 °C 1012.8 hPa SSW 6.4 km/h 14.5 km/h 85% 0 mm
17:44 4.1 °C 1.8 °C 1012.8 hPa SSW 8 km/h 11.3 km/h 85% 0 mm
17:49 4 °C 1.6 °C 1012.8 hPa SW 4.8 km/h 11.3 km/h 84% 0 mm
17:54 3.9 °C 1.5 °C 1012.8 hPa SSW 6.4 km/h 12.9 km/h 84% 0 mm
17:59 3.9 °C 1.4 °C 1013.1 hPa SW 6.4 km/h 12.9 km/h 84% 0 mm
18:04 3.8 °C 1.4 °C 1013.1 hPa SW 6.4 km/h 11.3 km/h 84% 0 mm
18:09 3.8 °C 1.5 °C 1013.1 hPa SW 6.4 km/h 11.3 km/h 85% 0 mm
18:14 3.7 °C 1.4 °C 1013.1 hPa SW 6.4 km/h 11.3 km/h 85% 0 mm
18:19 3.6 °C 1.3 °C 1013.1 hPa SSW 6.4 km/h 11.3 km/h 85% 0 mm
18:24 3.5 °C 1.2 °C 1013.1 hPa SSW 4.8 km/h 11.3 km/h 85% 0 mm
18:30 3.5 °C 1.4 °C 1013.1 hPa SW 6.4 km/h 11.3 km/h 86% 0 mm
18:35 3.6 °C 1.4 °C 1013.1 hPa SSW 6.4 km/h 11.3 km/h 86% 0 mm
18:39 3.6 °C 1.4 °C 1013.4 hPa SSW 4.8 km/h 11.3 km/h 86% 0 mm
18:44 3.6 °C 1.4 °C 1013.4 hPa SSW 3.2 km/h 9.7 km/h 86% 0 mm
18:49 3.6 °C 1.4 °C 1013.4 hPa SW 6.4 km/h 11.3 km/h 86% 0 mm
18:54 3.6 °C 1.5 °C 1013.4 hPa SSW 4.8 km/h 11.3 km/h 86% 0 mm
18:59 3.6 °C 1.5 °C 1013.4 hPa SSW 4.8 km/h 11.3 km/h 86% 0 mm
19:04 3.6 °C 1.5 °C 1013.8 hPa SSW 6.4 km/h 11.3 km/h 86% 0 mm
19:09 3.7 °C 1.6 °C 1013.8 hPa SSW 4.8 km/h 12.9 km/h 86% 0 mm
19:14 3.7 °C 1.6 °C 1013.8 hPa SSW 4.8 km/h 12.9 km/h 86% 0 mm
19:19 3.7 °C 1.4 °C 1013.8 hPa SSW 4.8 km/h 11.3 km/h 85% 0 mm
19:24 3.7 °C 1.6 °C 1013.8 hPa SSW 4.8 km/h 11.3 km/h 86% 0 mm
19:29 3.7 °C 1.6 °C 1013.8 hPa SSW 8 km/h 12.9 km/h 86% 0 mm
19:34 3.7 °C 1.6 °C 1013.8 hPa SSW 8 km/h 12.9 km/h 86% 0 mm
19:39 3.7 °C 1.6 °C 1014.1 hPa SSW 4.8 km/h 12.9 km/h 86% 0 mm
19:44 3.6 °C 1.5 °C 1014.1 hPa SSW 4.8 km/h 11.3 km/h 86% 0 mm
19:49 3.6 °C 1.5 °C 1014.1 hPa SSW 6.4 km/h 11.3 km/h 86% 0 mm
19:54 3.6 °C 1.5 °C 1014.1 hPa SSW 6.4 km/h 12.9 km/h 86% 0 mm
19:59 3.6 °C 1.4 °C 1014.1 hPa SW 6.4 km/h 12.9 km/h 86% 0 mm
20:04 3.5 °C 1.4 °C 1014.4 hPa SW 4.8 km/h 11.3 km/h 86% 0 mm
20:09 3.4 °C 1.5 °C 1014.4 hPa SSW 6.4 km/h 11.3 km/h 87% 0 mm
20:14 3.5 °C 1.6 °C 1014.4 hPa SW 6.4 km/h 11.3 km/h 87% 0 mm
20:19 3.5 °C 1.6 °C 1014.4 hPa SSW 6.4 km/h 14.5 km/h 87% 0 mm
20:24 3.6 °C 1.4 °C 1014.4 hPa SSW 4.8 km/h 14.5 km/h 86% 0 mm
20:30 3.5 °C 1.4 °C 1014.4 hPa SW 8 km/h 14.5 km/h 86% 0 mm
20:39 3.4 °C 1.3 °C 1014.1 hPa SW 8 km/h 14.5 km/h 86% 0 mm
20:44 3.4 °C 1.5 °C 1014.4 hPa SW 4.8 km/h 12.9 km/h 87% 0 mm
20:49 3.4 °C 1.4 °C 1014.4 hPa SW 3.2 km/h 12.9 km/h 87% 0 mm
20:54 3.3 °C 1.3 °C 1014.4 hPa SSW 3.2 km/h 12.9 km/h 87% 0 mm
20:59 3.3 °C 1.3 °C 1014.4 hPa SW 6.4 km/h 11.3 km/h 87% 0 mm
21:04 3.3 °C 1.3 °C 1014.8 hPa SSW 4.8 km/h 11.3 km/h 87% 0 mm
21:09 3.3 °C 1.3 °C 1014.8 hPa WSW 4.8 km/h 9.7 km/h 87% 0 mm
21:14 3.3 °C 1.4 °C 1014.8 hPa SSW 8 km/h 12.9 km/h 87% 0 mm
21:19 3.4 °C 1.5 °C 1014.8 hPa SW 6.4 km/h 16.1 km/h 87% 0 mm
21:24 3.5 °C 1.6 °C 1014.8 hPa SSW 8 km/h 19.3 km/h 87% 0 mm
21:29 3.6 °C 1.5 °C 1014.8 hPa SW 8 km/h 19.3 km/h 86% 0 mm
21:34 3.6 °C 1.5 °C 1014.8 hPa SW 8 km/h 17.7 km/h 86% 0 mm
21:39 3.6 °C 1.5 °C 1014.8 hPa SW 9.7 km/h 14.5 km/h 86% 0 mm
21:44 3.6 °C 1.5 °C 1014.8 hPa SW 8 km/h 14.5 km/h 86% 0 mm
21:55 3.4 °C 1.3 °C 1015.1 hPa SW 4.8 km/h 14.5 km/h 86% 0 mm
21:59 3.5 °C 1.6 °C 1015.1 hPa SW 6.4 km/h 12.9 km/h 87% 0 mm
22:04 3.6 °C 1.6 °C 1015.1 hPa SW 6.4 km/h 12.9 km/h 87% 0 mm
22:09 3.5 °C 1.6 °C 1015.1 hPa SW 8 km/h 14.5 km/h 87% 0 mm
22:14 3.5 °C 1.6 °C 1014.8 hPa SW 11.3 km/h 17.7 km/h 87% 0 mm
22:19 3.5 °C 1.6 °C 1014.8 hPa SW 9.7 km/h 17.7 km/h 87% 0 mm
22:24 3.5 °C 1.6 °C 1015.1 hPa SW 8 km/h 17.7 km/h 87% 0 mm
22:29 3.4 °C 1.5 °C 1014.8 hPa SW 9.7 km/h 16.1 km/h 87% 0 mm
22:34 3.4 °C 1.4 °C 1014.8 hPa SSW 6.4 km/h 14.5 km/h 87% 0 mm
22:39 3.3 °C 1.4 °C 1014.8 hPa SSW 8 km/h 14.5 km/h 87% 0 mm
22:44 3.3 °C 1.3 °C 1014.8 hPa SSW 8 km/h 12.9 km/h 87% 0 mm
22:49 3.3 °C 1.4 °C 1014.8 hPa SSW 8 km/h 14.5 km/h 87% 0 mm
22:55 3.3 °C 1.4 °C 1014.8 hPa SSW 8 km/h 14.5 km/h 87% 0 mm
22:59 3.2 °C 1.3 °C 1014.8 hPa SW 6.4 km/h 14.5 km/h 87% 0 mm
23:04 3.1 °C 1.2 °C 1014.8 hPa SSW 8 km/h 11.3 km/h 87% 0 mm
23:09 3.1 °C 1.1 °C 1014.8 hPa SSW 6.4 km/h 11.3 km/h 87% 0 mm
23:14 3 °C 1.2 °C 1014.8 hPa SSW 6.4 km/h 11.3 km/h 88% 0 mm
23:19 3 °C 1.2 °C 1015.1 hPa SSW 6.4 km/h 12.9 km/h 88% 0 mm
23:24 3.1 °C 1.3 °C 1015.1 hPa SSW 6.4 km/h 12.9 km/h 88% 0 mm
23:29 3 °C 1.2 °C 1015.1 hPa SW 6.4 km/h 11.3 km/h 88% 0 mm
23:34 3.1 °C 1.3 °C 1015.1 hPa SW 8 km/h 11.3 km/h 88% 0 mm
23:39 3.2 °C 1.4 °C 1015.5 hPa SW 6.4 km/h 11.3 km/h 88% 0 mm
23:44 3.2 °C 1.4 °C 1015.5 hPa SW 6.4 km/h 11.3 km/h 88% 0 mm
23:49 3.3 °C 1.6 °C 1015.5 hPa SW 8 km/h 12.9 km/h 88% 0 mm
23:54 3.6 °C 1.6 °C 1015.5 hPa WSW 4.8 km/h 12.9 km/h 87% 0 mm
23:59 3.8 °C 1.7 °C 1015.5 hPa WSW 6.4 km/h 14.5 km/h 86% 0 mm
Westford Weather
Compliments of Weather Underground

 
 
Current Radar Loop:

Copyright © WestfordWeather.net 2007-2014. All rights reserved.